sat.trackr.live / text

‹ back to catalog

FOREST-19 (PATADASTRA)

NORAD 69001 · 2026-100X

PAYLOAD ACTIVE UNKNOWN

§ Identity

Operator
Country
GREC
Launch date
2026-05-03
Launch site
AFWTR
Launch vehicle
Mass (kg)
RCS (m²)

External: N2YO · Heavens-Above · Gunter

§ Orbital elements

Epoch: 2026-09-20T04:07:39.834048Z

Period
96.45 min
Inclination
97.7238°
Eccentricity
0.0002742
Mean motion
14.92925648 rev/d
Perigee alt
586.9 km
Apogee alt
590.7 km
Semi-major
6,967.0 km
B*
6.9335e-5
RAAN
158.9943°
Arg perigee
70.8404°
Mean anomaly
289.3112°
Rev number
2,086

§ Raw data

FOREST-19 (PATADASTRA)1 69001U 26100X   26263.17198882  .00000664  00000+0  69335-4 0  99932 69001  97.7238 158.9943 0002742  70.8404 289.3112 14.92925648 20863

JSON: /api/v1/satellites/69001 · /tle

For live sub-satellite position, see the globe view (requires WebGL).

§ Visibility from observer

Set your observer location to see the next 7 days of passes ≥ 10°. The values pass through the URL so the page stays shareable.

No JS? Fill the form by hand. The geolocation button needs JavaScript.